• In Uzbekistan
  • List of Countries
  • For 7 days
  • Water Temperature
  • Satellite Maps
  • Weather Map
  • Weather Widgets
  • user-avatar
    Login

    Hourly Weather Canillo

    Today, 26 May, Friday

    Time Temperature Precipitation Wind Pressure Humidity
    00:00 +9°C° 0 mm 1 mps 619 mmHg 78%
    01:00 +9°C° 0 mm 1 mps 618 mmHg 78%
    02:00 +9°C° 0 mm 1 mps 618 mmHg 77%
    03:00 +9°C° 0 mm 1 mps 618 mmHg 77%
    04:00 +10°C° 0 mm 1 mps 619 mmHg 74%
    05:00 +11°C° 0 mm 1 mps 619 mmHg 71%
    06:00 +13°C° 0 mm 1 mps 621 mmHg 60%
    07:00 +15°C° 0 mm 1 mps 621 mmHg 54%
    08:00 +17°C° 0 mm 2 mps 622 mmHg 48%
    09:00 +19°C° 0 mm 2 mps 623 mmHg 41%
    10:00 +20°C° 0.1 mm 2 mps 623 mmHg 41%
    11:00 +21°C° 0.1 mm 2 mps 623 mmHg 40%
    12:00 +21°C° 0.1 mm 3 mps 623 mmHg 40%
    13:00 +21°C° 0.3 mm 3 mps 623 mmHg 41%
    14:00 +21°C° 0.3 mm 3 mps 623 mmHg 43%
    15:00 +21°C° 0.3 mm 3 mps 623 mmHg 44%
    16:00 +19°C° 0.2 mm 3 mps 622 mmHg 50%
    17:00 +18°C° 0.2 mm 2 mps 622 mmHg 56%
    18:00 +17°C° 0.2 mm 2 mps 621 mmHg 63%
    19:00 +15°C° 0.1 mm 2 mps 620 mmHg 69%
    20:00 +12°C° 0.1 mm 2 mps 620 mmHg 76%
    21:00 +9°C° 0.1 mm 2 mps 619 mmHg 82%
    22:00 +9°C° 0.1 mm 2 mps 619 mmHg 83%
    23:00 +9°C° 0.1 mm 2 mps 619 mmHg 83%

    Tomorrow, 27 May, Saturday

    Time Temperature Precipitation Wind Pressure Humidity
    00:00 +8°C° 0.1 mm 2 mps 619 mmHg 83%
    01:00 +9°C° 0 mm 1 mps 619 mmHg 83%
    02:00 +8°C° 0 mm 1 mps 619 mmHg 83%
    03:00 +8°C° 0 mm 1 mps 619 mmHg 82%
    04:00 +9°C° 0 mm 1 mps 620 mmHg 78%
    05:00 +11°C° 0 mm 1 mps 620 mmHg 74%
    06:00 +12°C° 0 mm 1 mps 621 mmHg 70%
    07:00 +14°C° 0 mm 1 mps 622 mmHg 62%
    08:00 +16°C° 0 mm 2 mps 623 mmHg 53%
    09:00 +18°C° 0 mm 2 mps 624 mmHg 45%
    10:00 +19°C° 0 mm 2 mps 624 mmHg 43%
    11:00 +20°C° 0 mm 3 mps 625 mmHg 42%
    12:00 +21°C° 0 mm 3 mps 625 mmHg 40%
    13:00 +21°C° 0.2 mm 3 mps 625 mmHg 41%
    14:00 +21°C° 0.2 mm 3 mps 624 mmHg 43%
    15:00 +21°C° 0.2 mm 3 mps 624 mmHg 44%
    16:00 +20°C° 0.1 mm 3 mps 624 mmHg 49%
    17:00 +18°C° 0.1 mm 2 mps 623 mmHg 55%
    18:00 +17°C° 0.1 mm 2 mps 623 mmHg 60%
    19:00 +15°C° 0.1 mm 2 mps 622 mmHg 67%
    20:00 +13°C° 0.1 mm 2 mps 622 mmHg 74%
    21:00 +10°C° 0.1 mm 1 mps 621 mmHg 81%
    22:00 +10°C° 0.1 mm 1 mps 621 mmHg 82%
    23:00 +10°C° 0.1 mm 1 mps 621 mmHg 82%

    Day after tomorrow, 28 May, Sunday

    Time Temperature Precipitation Wind Pressure Humidity
    00:00 +10°C° 0.1 mm 1 mps 621 mmHg 82%
    01:00 +9°C° 0 mm 1 mps 620 mmHg 81%
    02:00 +9°C° 0 mm 1 mps 620 mmHg 79%
    03:00 +8°C° 0 mm 2 mps 620 mmHg 78%
    04:00 +10°C° 0 mm 1 mps 621 mmHg 73%
    05:00 +11°C° 0 mm 1 mps 621 mmHg 69%
    06:00 +12°C° 0 mm 1 mps 622 mmHg 64%
    07:00 +15°C° 0 mm 2 mps 623 mmHg 56%
    08:00 +17°C° 0 mm 2 mps 624 mmHg 48%
    09:00 +19°C° 0 mm 2 mps 625 mmHg 40%
    10:00 +20°C° 0 mm 3 mps 625 mmHg 38%
    11:00 +21°C° 0 mm 3 mps 625 mmHg 36%
    12:00 +22°C° 0 mm 3 mps 626 mmHg 34%
    13:00 +22°C° 0 mm 3 mps 625 mmHg 35%
    14:00 +22°C° 0 mm 4 mps 625 mmHg 36%
    15:00 +22°C° 0 mm 4 mps 625 mmHg 37%
    16:00 +20°C° 0 mm 3 mps 624 mmHg 43%
    17:00 +19°C° 0 mm 3 mps 624 mmHg 50%
    18:00 +17°C° 0 mm 2 mps 623 mmHg 56%
    19:00 +15°C° 0 mm 2 mps 622 mmHg 63%
    20:00 +13°C° 0 mm 2 mps 622 mmHg 69%
    21:00 +10°C° 0 mm 2 mps 621 mmHg 76%
    22:00 +9°C° 0 mm 2 mps 621 mmHg 75%
    23:00 +9°C° 0 mm 2 mps 620 mmHg 75%

    29 May, Monday

    Time Temperature Precipitation Wind Pressure Humidity
    00:00 +9°C° 0 mm 2 mps 620 mmHg 74%
    01:00 +8°C° 0 mm 2 mps 620 mmHg 70%
    02:00 +8°C° 0 mm 2 mps 619 mmHg 65%
    03:00 +8°C° 0 mm 2 mps 619 mmHg 61%
    04:00 +9°C° 0 mm 2 mps 619 mmHg 59%
    05:00 +10°C° 0 mm 2 mps 620 mmHg 56%
    06:00 +12°C° 0 mm 2 mps 621 mmHg 54%
    07:00 +14°C° 0 mm 2 mps 621 mmHg 49%
    08:00 +15°C° 0 mm 2 mps 622 mmHg 44%
    09:00 +17°C° 0 mm 2 mps 623 mmHg 39%
    10:00 +18°C° 0 mm 3 mps 623 mmHg 36%
    11:00 +19°C° 0 mm 3 mps 623 mmHg 33%
    12:00 +20°C° 0 mm 3 mps 624 mmHg 30%
    13:00 +20°C° 0 mm 3 mps 623 mmHg 31%
    14:00 +20°C° 0 mm 3 mps 623 mmHg 32%
    15:00 +20°C° 0 mm 3 mps 623 mmHg 33%
    16:00 +18°C° 0 mm 3 mps 622 mmHg 41%
    17:00 +17°C° 0 mm 2 mps 621 mmHg 48%
    18:00 +15°C° 0 mm 2 mps 621 mmHg 55%
    19:00 +13°C° 0 mm 1 mps 620 mmHg 61%
    20:00 +11°C° 0 mm 1 mps 620 mmHg 67%
    21:00 +10°C° 0 mm 1 mps 620 mmHg 73%
    22:00 +9°C° 0 mm 1 mps 619 mmHg 76%
    23:00 +8°C° 0 mm 1 mps 618 mmHg 79%

    30 May, Tuesday

    Time Temperature Precipitation Wind Pressure Humidity
    00:00 +6°C° 0 mm 1 mps 618 mmHg 83%
    01:00 +7°C° 0 mm 1 mps 618 mmHg 82%
    02:00 +7°C° 0 mm 1 mps 618 mmHg 81%
    03:00 +7°C° 0 mm 1 mps 618 mmHg 80%
    04:00 +7°C° 0 mm 0 mps 619 mmHg 76%
    05:00 +8°C° 0 mm 0 mps 620 mmHg 73%
    06:00 +10°C° 0 mm 0 mps 620 mmHg 69%
    07:00 +12°C° 0.1 mm 1 mps 621 mmHg 64%
    08:00 +13°C° 0.1 mm 1 mps 622 mmHg 60%
    09:00 +14°C° 0.1 mm 1 mps 622 mmHg 56%
    10:00 +15°C° 0.2 mm 2 mps 622 mmHg 57%
    11:00 +15°C° 0.2 mm 2 mps 623 mmHg 57%
    12:00 +15°C° 0.2 mm 2 mps 623 mmHg 58%
    13:00 +15°C° 0.3 mm 2 mps 622 mmHg 59%
    14:00 +15°C° 0.3 mm 2 mps 622 mmHg 60%
    15:00 +15°C° 0.3 mm 2 mps 622 mmHg 61%
    16:00 +14°C° 0.3 mm 2 mps 622 mmHg 63%
    17:00 +14°C° 0.3 mm 2 mps 622 mmHg 66%
    18:00 +13°C° 0.3 mm 1 mps 621 mmHg 69%
    19:00 +11°C° 0.4 mm 1 mps 621 mmHg 76%
    20:00 +9°C° 0.4 mm 1 mps 621 mmHg 84%
    21:00 +7°C° 0.4 mm 1 mps 620 mmHg 91%
    22:00 +7°C° 0.1 mm 1 mps 620 mmHg 92%
    23:00 +7°C° 0.1 mm 1 mps 620 mmHg 92%

    31 May, Wednesday

    Time Temperature Precipitation Wind Pressure Humidity
    00:00 +7°C° 0.1 mm 1 mps 620 mmHg 93%
    01:00 +7°C° 0 mm 1 mps 620 mmHg 93%
    02:00 +6°C° 0 mm 1 mps 619 mmHg 94%
    03:00 +6°C° 0 mm 1 mps 619 mmHg 94%
    04:00 +7°C° 0 mm 1 mps 620 mmHg 91%
    05:00 +8°C° 0 mm 0 mps 621 mmHg 87%
    06:00 +9°C° 0 mm 0 mps 621 mmHg 83%
    07:00 +12°C° 0 mm 1 mps 622 mmHg 76%
    08:00 +13°C° 0 mm 1 mps 623 mmHg 68%
    09:00 +15°C° 0 mm 1 mps 624 mmHg 60%
    10:00 +15°C° 0.4 mm 1 mps 623 mmHg 61%
    11:00 +16°C° 0.4 mm 1 mps 623 mmHg 62%
    12:00 +16°C° 0.4 mm 2 mps 623 mmHg 62%
    13:00 +16°C° 1.2 mm 1 mps 623 mmHg 64%
    14:00 +15°C° 1.2 mm 1 mps 623 mmHg 66%
    15:00 +15°C° 1.2 mm 1 mps 622 mmHg 67%
    16:00 +15°C° 1.2 mm 1 mps 622 mmHg 70%
    17:00 +14°C° 1.2 mm 1 mps 622 mmHg 73%
    18:00 +14°C° 1.2 mm 1 mps 622 mmHg 76%
    19:00 +12°C° 0.4 mm 1 mps 621 mmHg 80%
    20:00 +10°C° 0.4 mm 1 mps 621 mmHg 84%
    21:00 +7°C° 0.4 mm 0 mps 620 mmHg 89%
    22:00 +7°C° 0 mm 0 mps 620 mmHg 89%
    23:00 +6°C° 0 mm 0 mps 620 mmHg 89%
    Show more